Regional Weather Roundup
Issued by NWS

Home | Current Version | Previous Version | Text Only | Print | Product List | Glossary Off
Versions: 1 2 3 4 5 6 7 8 9 10 11 12 13 14 15 16 17 18 19 20 21 22 23 24 25 26 27 28 29 30 31 32 33 34 35 36 37 38 39 40 41 42 43 44 45 46 47 48 49 50

000
ASUS43 KLMK 171410
RWRKY
KENTUCKY REGIONAL WEATHER ROUNDUP
NATIONAL WEATHER SERVICE LOUISVILLE KY
1000 AM EDT THU APR 17 2014

NOTE "FAIR" INDICATES FEW OR NO CLOUDS BELOW 12,000 FEET
WITH NO SIGNIFICANT WEATHER AND/OR OBSTRUCTIONS TO VISIBILITY.

KYZ001>023-026-027-061>063-070>075-171500-
WESTERN AND SOUTH CENTRAL KENTUCKY

CITY           SKY/WX    TMP DP  RH WIND       PRES   REMARKS
PADUCAH        SUNNY     57  37  47 S7G21     30.30R
HENDERSON      SUNNY     54  37  54 S14       30.32R
OWENSBORO      SUNNY     54  38  54 S14G21    30.33R
HOPKINSVILLE   SUNNY     55  32  41 S12       30.34R
BOWLING GREEN  SUNNY     54  31  41 S12       30.37R
GLASGOW        SUNNY     54  30  40 S9G18     30.37R
$$

KYZ024-025-028>034-038-045-046-053-171500-
NORTH CENTRAL KENTUCKY

CITY           SKY/WX    TMP DP  RH WIND       PRES   REMARKS
LOUISVILLE/SDF MOSUNNY   56  31  38 S14G21    30.35R
LOUISVILLE/LOU SUNNY     56  32  40 S12       30.36R
FORT KNOX      SUNNY     54  33  45 S15G21    30.34R
$$

KYZ035>037-039>044-047>052-055>060-089>105-171500-
NORTHEAST KENTUCKY

CITY           SKY/WX    TMP DP  RH WIND       PRES   REMARKS
LEXINGTON      SUNNY     53  30  41 S14       30.37R
COVINGTON      MOSUNNY   53  31  42 S17G24    30.35R
FRANKFORT      MOSUNNY   52  32  46 S13       30.36R
$$

KYZ054-064>069-076>088-106>120-171500-
SOUTHEAST KENTUCKY

CITY           SKY/WX    TMP DP  RH WIND       PRES   REMARKS
JACKSON        MOSUNNY   50  26  39 VRB3      30.41R
LONDON         MOSUNNY   51  27  39 SE9       30.40S
SOMERSET       SUNNY     50  28  43 SE7       30.41S
MIDDLESBORO    PTSUNNY   49  26  41 CALM      30.43R
MONTICELLO     SUNNY     54  31  41 SE8       30.40R
$$




USA.gov is the U.S. government's official web portal to all federal, state and local government web resources and services.